TimeEDT,TemperatureF,Dew PointF,Humidity,Sea Level PressureIn,VisibilityMPH,Wind Direction,Wind SpeedMPH,Gust SpeedMPH,PrecipitationIn,Events,Conditions,WindDirDegrees,DateUTC
12:35 AM,64.4,60.8,88,29.89,10.0,SSW,5.8,-,N/A,,Overcast,200,2012-10-14 04:35:00
3:11 AM,66.2,62.6,88,29.87,7.0,SW,11.5,17.3,N/A,,Mostly Cloudy,220,2012-10-14 07:11:00
3:31 AM,66.2,62.6,88,29.86,7.0,SW,6.9,-,N/A,,Scattered Clouds,220,2012-10-14 07:31:00
3:51 AM,68.0,62.6,83,29.86,7.0,SW,11.5,-,N/A,,Mostly Cloudy,220,2012-10-14 07:51:00
4:11 AM,68.0,62.6,83,29.85,7.0,SSW,10.4,-,N/A,,Mostly Cloudy,210,2012-10-14 08:11:00
4:31 AM,68.0,62.6,83,29.85,7.0,SSW,11.5,-,N/A,,Scattered Clouds,210,2012-10-14 08:31:00
4:51 AM,68.0,62.6,83,29.85,7.0,SSW,8.1,-,N/A,,Scattered Clouds,210,2012-10-14 08:51:00
5:12 AM,68.0,62.6,83,29.85,7.0,SSW,10.4,16.1,N/A,,Scattered Clouds,210,2012-10-14 09:12:00
5:32 AM,68.0,62.6,83,29.85,10.0,SSW,11.5,16.1,N/A,,Scattered Clouds,210,2012-10-14 09:32:00
5:52 AM,68.0,62.6,83,29.85,10.0,SSW,13.8,17.3,N/A,,Mostly Cloudy,200,2012-10-14 09:52:00
7:32 AM,66.2,62.6,88,29.83,10.0,South,10.4,-,N/A,,Clear,190,2012-10-14 11:32:00
7:53 AM,66.2,62.6,88,29.82,10.0,SSW,13.8,-,N/A,,Mostly Cloudy,200,2012-10-14 11:53:00
8:13 AM,66.2,60.8,83,29.82,10.0,SSW,13.8,18.4,N/A,,Mostly Cloudy,200,2012-10-14 12:13:00
8:33 AM,66.2,60.8,83,29.82,10.0,SSW,11.5,17.3,N/A,,Scattered Clouds,200,2012-10-14 12:33:00
8:53 AM,66.2,60.8,83,29.81,10.0,South,15.0,19.6,N/A,,Scattered Clouds,190,2012-10-14 12:53:00
9:13 AM,66.2,60.8,83,29.81,10.0,SSW,11.5,20.7,N/A,,Mostly Cloudy,200,2012-10-14 13:13:00
9:33 AM,66.2,60.8,83,29.80,10.0,SSW,12.7,26.5,N/A,,Mostly Cloudy,200,2012-10-14 13:33:00
9:53 AM,68.0,60.8,78,29.79,10.0,South,12.7,21.9,N/A,,Scattered Clouds,190,2012-10-14 13:53:00
10:13 AM,68.0,60.8,78,29.78,10.0,South,18.4,25.3,N/A,,Scattered Clouds,190,2012-10-14 14:13:00
10:33 AM,68.0,60.8,78,29.77,10.0,South,18.4,26.5,N/A,,Scattered Clouds,190,2012-10-14 14:33:00
10:54 AM,69.8,60.8,73,29.76,10.0,SSW,17.3,27.6,N/A,,Scattered Clouds,200,2012-10-14 14:54:00
11:14 AM,69.8,60.8,73,29.74,10.0,South,21.9,31.1,N/A,,Mostly Cloudy,190,2012-10-14 15:14:00
11:34 AM,69.8,60.8,73,29.73,10.0,South,18.4,33.4,N/A,,Mostly Cloudy,180,2012-10-14 15:34:00
11:54 AM,69.8,60.8,73,29.71,10.0,South,18.4,29.9,N/A,,Mostly Cloudy,180,2012-10-14 15:54:00
12:14 PM,69.8,60.8,73,29.69,10.0,South,25.3,33.4,N/A,,Scattered Clouds,180,2012-10-14 16:14:00
12:34 PM,71.6,59.0,64,29.70,10.0,SSW,21.9,35.7,N/A,,Mostly Cloudy,200,2012-10-14 16:34:00
12:54 PM,69.8,59.0,68,29.71,10.0,SSW,19.6,33.4,N/A,Rain,Light Rain,200,2012-10-14 16:54:00
1:14 PM,71.6,59.0,64,29.70,10.0,SSW,20.7,26.5,N/A,,Mostly Cloudy,200,2012-10-14 17:14:00
1:34 PM,69.8,59.0,68,29.70,10.0,SSW,20.7,28.8,N/A,,Light Drizzle,200,2012-10-14 17:34:00
1:55 PM,69.8,59.0,68,29.69,10.0,SSW,21.9,29.9,N/A,Rain,Light Rain,200,2012-10-14 17:55:00
2:15 PM,69.8,59.0,68,29.68,10.0,SSW,13.8,26.5,N/A,Rain,Light Rain,200,2012-10-14 18:15:00
2:35 PM,69.8,60.8,73,29.68,10.0,SSW,15.0,27.6,N/A,Rain,Light Rain,200,2012-10-14 18:35:00
2:55 PM,68.0,60.8,78,29.66,10.0,SSW,16.1,24.2,N/A,Rain,Light Rain,200,2012-10-14 18:55:00
3:15 PM,66.2,62.6,88,29.64,10.0,South,15.0,24.2,N/A,Rain,Light Rain,190,2012-10-14 19:15:00
3:35 PM,66.2,62.6,88,29.62,10.0,South,12.7,19.6,N/A,Rain,Light Rain,180,2012-10-14 19:35:00
3:55 PM,68.0,62.6,83,29.60,10.0,South,17.3,25.3,N/A,,Mostly Cloudy,180,2012-10-14 19:55:00
4:15 PM,71.6,62.6,73,29.59,10.0,South,18.4,27.6,N/A,,Scattered Clouds,190,2012-10-14 20:15:00
4:36 PM,71.6,60.8,69,29.58,10.0,SSW,20.7,31.1,N/A,,Mostly Cloudy,200,2012-10-14 20:36:00
4:56 PM,71.6,60.8,69,29.58,10.0,South,20.7,27.6,N/A,,Overcast,190,2012-10-14 20:56:00
5:11 PM,71.6,60.8,69,29.57,10.0,South,16.1,28.8,N/A,,Overcast,190,2012-10-14 21:11:00
5:31 PM,71.6,60.8,69,29.56,10.0,SSW,19.6,29.9,N/A,,Overcast,200,2012-10-14 21:31:00
5:51 PM,71.6,60.8,69,29.55,10.0,SSW,18.4,32.2,N/A,,Mostly Cloudy,200,2012-10-14 21:51:00
6:11 PM,71.6,60.8,69,29.54,10.0,SSW,15.0,29.9,N/A,,Mostly Cloudy,200,2012-10-14 22:11:00
6:31 PM,71.6,60.8,69,29.54,10.0,South,19.6,24.2,N/A,,Scattered Clouds,190,2012-10-14 22:31:00
6:51 PM,69.8,60.8,73,29.53,10.0,South,19.6,27.6,N/A,,Scattered Clouds,190,2012-10-14 22:51:00
7:31 PM,69.8,60.8,73,29.51,10.0,South,16.1,27.6,N/A,,Mostly Cloudy,190,2012-10-14 23:31:00
7:52 PM,69.8,60.8,73,29.51,10.0,South,17.3,27.6,N/A,,Scattered Clouds,190,2012-10-14 23:52:00
8:12 PM,69.8,60.8,73,29.50,10.0,SSW,17.3,23.0,N/A,,Scattered Clouds,200,2012-10-15 00:12:00
8:32 PM,69.8,60.8,73,29.49,10.0,SSW,18.4,25.3,N/A,,Clear,200,2012-10-15 00:32:00
8:52 PM,69.8,59.0,68,29.49,10.0,SSW,17.3,23.0,N/A,,Scattered Clouds,200,2012-10-15 00:52:00
9:12 PM,69.8,59.0,68,29.48,10.0,South,18.4,23.0,N/A,,Mostly Cloudy,190,2012-10-15 01:12:00
9:52 PM,69.8,57.2,64,29.47,10.0,SSW,18.4,24.2,N/A,,Overcast,210,2012-10-15 01:52:00
10:12 PM,66.2,57.2,73,29.48,10.0,SW,24.2,38.0,N/A,,Overcast,230,2012-10-15 02:12:00
10:32 PM,66.2,57.2,73,29.49,10.0,SW,20.7,29.9,N/A,,Overcast,230,2012-10-15 02:32:00
11:33 PM,60.8,53.6,77,29.51,10.0,WSW,24.2,35.7,N/A,,Overcast,240,2012-10-15 03:33:00
11:53 PM,60.8,53.6,77,29.52,10.0,WSW,24.2,35.7,N/A,,Overcast,240,2012-10-15 03:53:00